Location: Les Jeannots
(43.2262°N, 5.5774°E)
Time: 18:23:39
(UTC+00:00)

Cosmos 773 Rocket - Pass Details

Date: 05 July 2020
Orbit: 746 x 776 km, 74.1° (Epoch: 12 August)

Event Time Altitude Azimuth Distance (km) Brightness Sun altitude
Exits shadow 20:49:13 - 192° (SSW) 2,941 6.7 -13.0°
Reaches altitude 10° 20:50:49 10° 190° (S) 2,317 6.1 -13.2°
Maximum altitude 20:56:04 72° 107° (ESE) 820 4.0 -13.8°
Drops below altitude 10° 21:01:20 10° 24° (NNE) 2,330 6.9 -14.4°
Sets 21:03:44 0° 23° (NNE) 3,259 7.7 -14.7°
